Location: Ferchesar
(52.6477°N, 12.4298°E)
Time: 11:29:03
(UTC+01:00)

Altair - Pass Details

Date: 07 December 2021
Orbit: 1501 x 1683 km, 47.2° (Epoch: 20 January)

Event Time Altitude Azimuth Distance (km) Brightness Sun altitude
Rises 19:12:30 0° 276° (W) 4,718 11.3 -28.4°
Reaches altitude 10° 19:15:40 10° 272° (W) 3,713 10.5 -28.9°
Maximum altitude 19:24:36 54° 199° (SSW) 1,785 7.8 -30.3°
Enters shadow 19:27:27 41° 152° (SSE) 2,059 7.9 -30.7°
